contact: severine.martini@mio.osupytheas.fr, dominique.lefevre@mio.osupytheas.fr
Project:EMSO Ligure-ouest http://www.emso-fr.org/EMSO-France
Sensor Microcat Sea-Bird SBE37 SMP,  Serial 57510 
DOI : "https://doi.org/10.17882/97948" 
Title:EMSO Ligure Ouest : Data Bathybot capteur Microcat - deploiement 2023-04-28
Datetime,Profondeur,Latitude,Longitude,Temperature,Conductivite,Pression,Salinite
time,m,degree_north,degree_east,degree_C,S/m,db,PSU 
2023-09-22T00:00:49,2420,42.8014,5.9826,13.2969,4.59893,2453.695,38.4864
2023-09-22T00:03:49,2420,42.8014,5.9826,13.2966,4.59882,2453.672,38.4857
2023-09-22T00:06:49,2420,42.8014,5.9826,13.2968,4.59887,2453.695,38.4860
2023-09-22T00:09:49,2420,42.8014,5.9826,13.2970,4.59886,2453.687,38.4857
2023-09-22T00:12:49,2420,42.8014,5.9826,13.2970,4.59882,2453.695,38.4853
2023-09-22T00:15:49,2420,42.8014,5.9826,13.2969,4.59889,2453.680,38.4861
2023-09-22T00:18:49,2420,42.8014,5.9826,13.2970,4.59886,2453.672,38.4857
2023-09-22T00:21:49,2420,42.8014,5.9826,13.2972,4.59885,2453.657,38.4854
2023-09-22T00:24:49,2420,42.8014,5.9826,13.2971,4.59889,2453.672,38.4858
2023-09-22T00:27:49,2420,42.8014,5.9826,13.2970,4.59894,2453.672,38.4864
2023-09-22T00:30:49,2420,42.8014,5.9826,13.2969,4.59888,2453.664,38.4860
2023-09-22T00:33:49,2420,42.8014,5.9826,13.2965,4.59886,2453.612,38.4862
2023-09-22T00:36:49,2420,42.8014,5.9826,13.2970,4.59889,2453.649,38.4860
2023-09-22T00:39:49,2420,42.8014,5.9826,13.2968,4.59886,2453.680,38.4858
2023-09-22T00:42:49,2420,42.8014,5.9826,13.2972,4.59880,2453.672,38.4849
2023-09-22T00:45:49,2420,42.8014,5.9826,13.2972,4.59884,2453.649,38.4853
2023-09-22T00:48:49,2420,42.8014,5.9826,13.2971,4.59886,2453.672,38.4856
2023-09-22T00:51:49,2420,42.8014,5.9826,13.2971,4.59886,2453.649,38.4856
2023-09-22T00:54:49,2420,42.8014,5.9826,13.2971,4.59886,2453.672,38.4855
2023-09-22T00:57:49,2420,42.8014,5.9826,13.2970,4.59884,2453.672,38.4855
2023-09-22T01:00:49,2420,42.8014,5.9826,13.2975,4.59876,2453.657,38.4843
2023-09-22T01:03:49,2420,42.8014,5.9826,13.2969,4.59880,2453.672,38.4852
2023-09-22T01:06:49,2420,42.8014,5.9826,13.2967,4.59878,2453.695,38.4852
2023-09-22T01:09:49,2420,42.8014,5.9826,13.2971,4.59879,2453.635,38.4849
2023-09-22T01:12:49,2420,42.8014,5.9826,13.2971,4.59886,2453.672,38.4855
2023-09-22T01:15:49,2420,42.8014,5.9826,13.2975,4.59889,2453.672,38.4855
2023-09-22T01:18:49,2420,42.8014,5.9826,13.2967,4.59889,2453.672,38.4863
2023-09-22T01:21:49,2420,42.8014,5.9826,13.2971,4.59883,2453.627,38.4853
2023-09-22T01:24:49,2420,42.8014,5.9826,13.2970,4.59884,2453.649,38.4856
2023-09-22T01:27:49,2420,42.8014,5.9826,13.2970,4.59878,2453.635,38.4849
2023-09-22T01:30:49,2420,42.8014,5.9826,13.2973,4.59883,2453.649,38.4850
2023-09-22T01:33:49,2420,42.8014,5.9826,13.2966,4.59879,2453.672,38.4854
2023-09-22T01:36:49,2420,42.8014,5.9826,13.2969,4.59885,2453.672,38.4857
2023-09-22T01:39:49,2420,42.8014,5.9826,13.2969,4.59879,2453.672,38.4851
2023-09-22T01:42:49,2420,42.8014,5.9826,13.2973,4.59887,2453.627,38.4855
2023-09-22T01:45:49,2420,42.8014,5.9826,13.2973,4.59889,2453.649,38.4857
2023-09-22T01:48:49,2420,42.8014,5.9826,13.2971,4.59884,2453.649,38.4854
2023-09-22T01:51:49,2420,42.8014,5.9826,13.2972,4.59885,2453.649,38.4854
2023-09-22T01:54:49,2420,42.8014,5.9826,13.2974,4.59889,2453.635,38.4856
2023-09-22T01:57:49,2420,42.8014,5.9826,13.2973,4.59886,2453.627,38.4854
2023-09-22T02:00:49,2420,42.8014,5.9826,13.2968,4.59883,2453.649,38.4855
2023-09-22T02:03:49,2420,42.8014,5.9826,13.2970,4.59883,2453.649,38.4855
2023-09-22T02:06:49,2420,42.8014,5.9826,13.2973,4.59883,2453.649,38.4852
2023-09-22T02:09:49,2420,42.8014,5.9826,13.2972,4.59884,2453.627,38.4853
2023-09-22T02:12:49,2420,42.8014,5.9826,13.2970,4.59884,2453.612,38.4856
2023-09-22T02:15:49,2420,42.8014,5.9826,13.2970,4.59881,2453.649,38.4852
2023-09-22T02:18:49,2420,42.8014,5.9826,13.2971,4.59880,2453.590,38.4851
2023-09-22T02:21:49,2420,42.8014,5.9826,13.2973,4.59879,2453.612,38.4847
2023-09-22T02:24:49,2420,42.8014,5.9826,13.2975,4.59877,2453.649,38.4844
2023-09-22T02:27:49,2420,42.8014,5.9826,13.2970,4.59884,2453.641,38.4856
2023-09-22T02:30:49,2420,42.8014,5.9826,13.2970,4.59881,2453.627,38.4852
2023-09-22T02:33:49,2420,42.8014,5.9826,13.2967,4.59883,2453.649,38.4857
2023-09-22T02:36:49,2420,42.8014,5.9826,13.2970,4.59889,2453.641,38.4859
2023-09-22T02:39:49,2420,42.8014,5.9826,13.2968,4.59877,2453.627,38.4851
2023-09-22T02:42:49,2420,42.8014,5.9826,13.2970,4.59882,2453.635,38.4853
2023-09-22T02:45:49,2420,42.8014,5.9826,13.2967,4.59883,2453.604,38.4857
2023-09-22T02:48:49,2420,42.8014,5.9826,13.2968,4.59878,2453.649,38.4851
2023-09-22T02:51:49,2420,42.8014,5.9826,13.2971,4.59882,2453.627,38.4852
2023-09-22T02:54:49,2420,42.8014,5.9826,13.2970,4.59879,2453.641,38.4850
2023-09-22T02:57:49,2420,42.8014,5.9826,13.2973,4.59877,2453.664,38.4846
2023-09-22T03:00:50,2420,42.8014,5.9826,13.2968,4.59872,2453.649,38.4846
2023-09-22T03:03:49,2420,42.8014,5.9826,13.2970,4.59876,2453.627,38.4847
2023-09-22T03:06:49,2420,42.8014,5.9826,13.2968,4.59878,2453.649,38.4852
2023-09-22T03:09:49,2420,42.8014,5.9826,13.2967,4.59886,2453.649,38.4860
2023-09-22T03:12:49,2420,42.8014,5.9826,13.2970,4.59883,2453.604,38.4854
2023-09-22T03:15:49,2420,42.8014,5.9826,13.2967,4.59881,2453.627,38.4855
2023-09-22T03:18:49,2420,42.8014,5.9826,13.2969,4.59881,2453.649,38.4853
2023-09-22T03:21:49,2420,42.8014,5.9826,13.2970,4.59886,2453.604,38.4856
2023-09-22T03:24:49,2420,42.8014,5.9826,13.2972,4.59880,2453.649,38.4850
2023-09-22T03:27:49,2420,42.8014,5.9826,13.2967,4.59877,2453.619,38.4851
2023-09-22T03:30:49,2420,42.8014,5.9826,13.2963,4.59887,2453.612,38.4865
2023-09-22T03:33:49,2420,42.8014,5.9826,13.2970,4.59882,2453.627,38.4853
2023-09-22T03:36:49,2420,42.8014,5.9826,13.2970,4.59877,2453.627,38.4849
2023-09-22T03:39:49,2420,42.8014,5.9826,13.2968,4.59879,2453.627,38.4853
2023-09-22T03:42:49,2420,42.8014,5.9826,13.2971,4.59878,2453.627,38.4848
2023-09-22T03:45:49,2420,42.8014,5.9826,13.2972,4.59877,2453.604,38.4847
2023-09-22T03:48:49,2420,42.8014,5.9826,13.2969,4.59879,2453.604,38.4851
2023-09-22T03:51:49,2420,42.8014,5.9826,13.2972,4.59877,2453.627,38.4846
2023-09-22T03:54:49,2420,42.8014,5.9826,13.2972,4.59878,2453.604,38.4848
2023-09-22T03:57:49,2420,42.8014,5.9826,13.2973,4.59885,2453.627,38.4853
2023-09-22T04:00:50,2420,42.8014,5.9826,13.2973,4.59880,2453.649,38.4848
2023-09-22T04:03:49,2420,42.8014,5.9826,13.2968,4.59881,2453.627,38.4855
2023-09-22T04:06:49,2420,42.8014,5.9826,13.2973,4.59879,2453.582,38.4848
2023-09-22T04:09:49,2420,42.8014,5.9826,13.2972,4.59880,2453.612,38.4850
2023-09-22T04:12:49,2420,42.8014,5.9826,13.2969,4.59881,2453.627,38.4853
2023-09-22T04:15:49,2420,42.8014,5.9826,13.2965,4.59877,2453.627,38.4854
2023-09-22T04:18:49,2420,42.8014,5.9826,13.2970,4.59878,2453.590,38.4849
2023-09-22T04:21:49,2420,42.8014,5.9826,13.2969,4.59879,2453.641,38.4851
2023-09-22T04:24:49,2420,42.8014,5.9826,13.2969,4.59880,2453.627,38.4852
2023-09-22T04:27:49,2420,42.8014,5.9826,13.2969,4.59878,2453.590,38.4851
2023-09-22T04:30:49,2420,42.8014,5.9826,13.2970,4.59880,2453.582,38.4851
2023-09-22T04:33:49,2420,42.8014,5.9826,13.2972,4.59880,2453.604,38.4850
2023-09-22T04:36:49,2420,42.8014,5.9826,13.2970,4.59879,2453.627,38.4851
2023-09-22T04:39:49,2420,42.8014,5.9826,13.2970,4.59881,2453.582,38.4852
2023-09-22T04:42:49,2420,42.8014,5.9826,13.2975,4.59877,2453.582,38.4843
2023-09-22T04:45:49,2420,42.8014,5.9826,13.2970,4.59877,2453.612,38.4849
2023-09-22T04:48:49,2420,42.8014,5.9826,13.2971,4.59875,2453.604,38.4845
2023-09-22T04:51:49,2420,42.8014,5.9826,13.2970,4.59886,2453.604,38.4857
2023-09-22T04:54:49,2420,42.8014,5.9826,13.2971,4.59875,2453.590,38.4845
2023-09-22T04:57:49,2420,42.8014,5.9826,13.2970,4.59872,2453.604,38.4844
2023-09-22T05:00:49,2420,42.8014,5.9826,13.2966,4.59872,2453.604,38.4848
2023-09-22T05:03:49,2420,42.8014,5.9826,13.2969,4.59877,2453.582,38.4849
2023-09-22T05:06:49,2420,42.8014,5.9826,13.2971,4.59873,2453.627,38.4844
2023-09-22T05:09:49,2420,42.8014,5.9826,13.2974,4.59872,2453.604,38.4840
2023-09-22T05:12:49,2420,42.8014,5.9826,13.2973,4.59872,2453.582,38.4842
2023-09-22T05:15:49,2420,42.8014,5.9826,13.2970,4.59877,2453.604,38.4849
2023-09-22T05:18:49,2420,42.8014,5.9826,13.2968,4.59876,2453.627,38.4849
2023-09-22T05:21:49,2420,42.8014,5.9826,13.2972,4.59872,2453.582,38.4842
2023-09-22T05:24:49,2420,42.8014,5.9826,13.2970,4.59872,2453.604,38.4844
2023-09-22T05:27:49,2420,42.8014,5.9826,13.2973,4.59869,2453.604,38.4838
2023-09-22T05:30:49,2420,42.8014,5.9826,13.2970,4.59871,2453.604,38.4842
2023-09-22T05:33:49,2420,42.8014,5.9826,13.2969,4.59872,2453.604,38.4844
2023-09-22T05:36:49,2420,42.8014,5.9826,13.2972,4.59872,2453.604,38.4842
2023-09-22T05:39:49,2420,42.8014,5.9826,13.2969,4.59870,2453.604,38.4843
2023-09-22T05:42:49,2420,42.8014,5.9826,13.2970,4.59871,2453.627,38.4843
2023-09-22T05:45:49,2420,42.8014,5.9826,13.2967,4.59872,2453.627,38.4846
2023-09-22T05:48:49,2420,42.8014,5.9826,13.2970,4.59872,2453.604,38.4844
2023-09-22T05:51:49,2420,42.8014,5.9826,13.2971,4.59871,2453.604,38.4841
2023-09-22T05:54:49,2420,42.8014,5.9826,13.2968,4.59870,2453.582,38.4844
2023-09-22T05:57:49,2420,42.8014,5.9826,13.2968,4.59872,2453.604,38.4846
2023-09-22T06:00:49,2420,42.8014,5.9826,13.2970,4.59870,2453.604,38.4842
2023-09-22T06:03:49,2420,42.8014,5.9826,13.2965,4.59869,2453.582,38.4847
2023-09-22T06:06:49,2420,42.8014,5.9826,13.2968,4.59872,2453.604,38.4846
2023-09-22T06:09:49,2420,42.8014,5.9826,13.2971,4.59872,2453.590,38.4842
2023-09-22T06:12:50,2420,42.8014,5.9826,13.2970,4.59872,2453.649,38.4844
2023-09-22T06:15:49,2420,42.8014,5.9826,13.2968,4.59869,2453.604,38.4843
2023-09-22T06:18:49,2420,42.8014,5.9826,13.2969,4.59870,2453.582,38.4843
2023-09-22T06:21:49,2420,42.8014,5.9826,13.2968,4.59868,2453.604,38.4841
2023-09-22T06:24:49,2420,42.8014,5.9826,13.2969,4.59869,2453.604,38.4842
2023-09-22T06:27:49,2420,42.8014,5.9826,13.2969,4.59870,2453.604,38.4843
2023-09-22T06:30:49,2420,42.8014,5.9826,13.2970,4.59869,2453.582,38.4841
2023-09-22T06:33:49,2420,42.8014,5.9826,13.2966,4.59871,2453.590,38.4846
2023-09-22T06:36:49,2420,42.8014,5.9826,13.2969,4.59870,2453.604,38.4843
2023-09-22T06:39:49,2420,42.8014,5.9826,13.2970,4.59868,2453.582,38.4840
2023-09-22T06:42:49,2420,42.8014,5.9826,13.2968,4.59872,2453.604,38.4845
2023-09-22T06:45:49,2420,42.8014,5.9826,13.2968,4.59872,2453.604,38.4846
2023-09-22T06:48:49,2420,42.8014,5.9826,13.2966,4.59869,2453.604,38.4844
2023-09-22T06:51:49,2420,42.8014,5.9826,13.2964,4.59868,2453.590,38.4846
2023-09-22T06:54:49,2420,42.8014,5.9826,13.2969,4.59868,2453.604,38.4841
2023-09-22T06:57:49,2420,42.8014,5.9826,13.2966,4.59867,2453.641,38.4843
2023-09-22T07:00:49,2420,42.8014,5.9826,13.2968,4.59867,2453.627,38.4841
2023-09-22T07:03:49,2420,42.8014,5.9826,13.2966,4.59870,2453.627,38.4846
2023-09-22T07:06:49,2420,42.8014,5.9826,13.2963,4.59870,2453.604,38.4849
2023-09-22T07:09:49,2420,42.8014,5.9826,13.2967,4.59868,2453.604,38.4843
2023-09-22T07:12:49,2420,42.8014,5.9826,13.2968,4.59870,2453.649,38.4844
2023-09-22T07:15:49,2420,42.8014,5.9826,13.2968,4.59868,2453.567,38.4843
2023-09-22T07:18:49,2420,42.8014,5.9826,13.2968,4.59867,2453.604,38.4841
2023-09-22T07:21:49,2420,42.8014,5.9826,13.2969,4.59869,2453.604,38.4842
2023-09-22T07:24:49,2420,42.8014,5.9826,13.2967,4.59871,2453.604,38.4846
2023-09-22T07:27:49,2420,42.8014,5.9826,13.2968,4.59869,2453.627,38.4842
2023-09-22T07:30:49,2420,42.8014,5.9826,13.2968,4.59868,2453.649,38.4842
2023-09-22T07:33:49,2420,42.8014,5.9826,13.2966,4.59868,2453.627,38.4844
2023-09-22T07:36:49,2420,42.8014,5.9826,13.2968,4.59869,2453.649,38.4843
2023-09-22T07:39:49,2420,42.8014,5.9826,13.2969,4.59869,2453.627,38.4842
2023-09-22T07:42:49,2420,42.8014,5.9826,13.2967,4.59867,2453.627,38.4842
2023-09-22T07:45:49,2420,42.8014,5.9826,13.2967,4.59868,2453.612,38.4843
2023-09-22T07:48:49,2420,42.8014,5.9826,13.2969,4.59867,2453.649,38.4840
2023-09-22T07:51:49,2420,42.8014,5.9826,13.2968,4.59869,2453.649,38.4844
2023-09-22T07:54:49,2420,42.8014,5.9826,13.2966,4.59868,2453.627,38.4844
2023-09-22T07:57:49,2420,42.8014,5.9826,13.2969,4.59868,2453.604,38.4841
2023-09-22T08:00:49,2420,42.8014,5.9826,13.2966,4.59869,2453.649,38.4844
2023-09-22T08:03:49,2420,42.8014,5.9826,13.2966,4.59868,2453.641,38.4844
2023-09-22T08:06:49,2420,42.8014,5.9826,13.2970,4.59868,2453.627,38.4840
2023-09-22T08:09:49,2420,42.8014,5.9826,13.2964,4.59869,2453.627,38.4848
2023-09-22T08:12:49,2420,42.8014,5.9826,13.2970,4.59868,2453.657,38.4840
2023-09-22T08:15:49,2420,42.8014,5.9826,13.2968,4.59868,2453.672,38.4841
2023-09-22T08:18:49,2420,42.8014,5.9826,13.2966,4.59867,2453.672,38.4843
2023-09-22T08:21:49,2420,42.8014,5.9826,13.2968,4.59869,2453.649,38.4843
2023-09-22T08:24:49,2420,42.8014,5.9826,13.2966,4.59868,2453.672,38.4843
2023-09-22T08:27:49,2420,42.8014,5.9826,13.2966,4.59869,2453.672,38.4845
2023-09-22T08:30:49,2420,42.8014,5.9826,13.2970,4.59868,2453.649,38.4840
2023-09-22T08:33:49,2420,42.8014,5.9826,13.2967,4.59869,2453.695,38.4843
2023-09-22T08:36:49,2420,42.8014,5.9826,13.2967,4.59867,2453.680,38.4842
2023-09-22T08:39:49,2420,42.8014,5.9826,13.2968,4.59869,2453.672,38.4844
2023-09-22T08:42:49,2420,42.8014,5.9826,13.2966,4.59869,2453.649,38.4845
2023-09-22T08:45:49,2420,42.8014,5.9826,13.2966,4.59869,2453.649,38.4846
2023-09-22T08:48:49,2420,42.8014,5.9826,13.2967,4.59869,2453.687,38.4843
2023-09-22T08:51:49,2420,42.8014,5.9826,13.2966,4.59869,2453.672,38.4845
2023-09-22T08:54:49,2420,42.8014,5.9826,13.2965,4.59869,2453.672,38.4846
2023-09-22T08:57:49,2420,42.8014,5.9826,13.2968,4.59869,2453.672,38.4843
2023-09-22T09:00:49,2420,42.8014,5.9826,13.2968,4.59868,2453.672,38.4842
2023-09-22T09:03:49,2420,42.8014,5.9826,13.2968,4.59868,2453.695,38.4841
2023-09-22T09:06:49,2420,42.8014,5.9826,13.2967,4.59869,2453.672,38.4843
2023-09-22T09:09:49,2420,42.8014,5.9826,13.2967,4.59869,2453.672,38.4843
2023-09-22T09:12:49,2420,42.8014,5.9826,13.2967,4.59868,2453.695,38.4843
2023-09-22T09:15:49,2420,42.8014,5.9826,13.2966,4.59873,2453.672,38.4848
2023-09-22T09:18:49,2420,42.8014,5.9826,13.2969,4.59871,2453.695,38.4843
2023-09-22T09:21:49,2420,42.8014,5.9826,13.2969,4.59870,2453.695,38.4843
2023-09-22T09:24:49,2420,42.8014,5.9826,13.2966,4.59868,2453.695,38.4844
2023-09-22T09:27:49,2420,42.8014,5.9826,13.2966,4.59869,2453.695,38.4845
2023-09-22T09:30:49,2420,42.8014,5.9826,13.2963,4.59870,2453.695,38.4849
2023-09-22T09:33:49,2420,42.8014,5.9826,13.2965,4.59869,2453.717,38.4845
2023-09-22T09:36:49,2420,42.8014,5.9826,13.2969,4.59870,2453.717,38.4842
2023-09-22T09:39:49,2420,42.8014,5.9826,13.2969,4.59873,2453.695,38.4845
2023-09-22T09:42:49,2420,42.8014,5.9826,13.2965,4.59870,2453.695,38.4847
2023-09-22T09:45:49,2420,42.8014,5.9826,13.2968,4.59869,2453.702,38.4842
2023-09-22T09:48:49,2420,42.8014,5.9826,13.2969,4.59870,2453.717,38.4842
2023-09-22T09:51:49,2420,42.8014,5.9826,13.2966,4.59868,2453.740,38.4843
2023-09-22T09:54:49,2420,42.8014,5.9826,13.2970,4.59871,2453.717,38.4842
2023-09-22T09:57:49,2420,42.8014,5.9826,13.2969,4.59868,2453.702,38.4840
2023-09-22T10:00:49,2420,42.8014,5.9826,13.2968,4.59869,2453.680,38.4843
2023-09-22T10:03:49,2420,42.8014,5.9826,13.2965,4.59871,2453.717,38.4847
2023-09-22T10:06:49,2420,42.8014,5.9826,13.2967,4.59874,2453.717,38.4848
2023-09-22T10:09:49,2420,42.8014,5.9826,13.2968,4.59871,2453.762,38.4845
2023-09-22T10:12:49,2420,42.8014,5.9826,13.2968,4.59880,2453.717,38.4853
2023-09-22T10:15:49,2420,42.8014,5.9826,13.2970,4.59870,2453.725,38.4842
2023-09-22T10:18:49,2420,42.8014,5.9826,13.2968,4.59871,2453.702,38.4845
2023-09-22T10:21:49,2420,42.8014,5.9826,13.2969,4.59871,2453.717,38.4843
2023-09-22T10:24:49,2420,42.8014,5.9826,13.2969,4.59871,2453.740,38.4843
2023-09-22T10:27:50,2420,42.8014,5.9826,13.2969,4.59871,2453.702,38.4843
2023-09-22T10:30:49,2420,42.8014,5.9826,13.2964,4.59870,2453.695,38.4848
2023-09-22T10:33:49,2420,42.8014,5.9826,13.2968,4.59874,2453.717,38.4847
2023-09-22T10:36:49,2420,42.8014,5.9826,13.2965,4.59872,2453.717,38.4848
2023-09-22T10:39:49,2420,42.8014,5.9826,13.2970,4.59873,2453.717,38.4845
2023-09-22T10:42:49,2420,42.8014,5.9826,13.2968,4.59871,2453.725,38.4844
2023-09-22T10:45:49,2420,42.8014,5.9826,13.2970,4.59872,2453.762,38.4843
2023-09-22T10:48:49,2420,42.8014,5.9826,13.2966,4.59873,2453.709,38.4848
2023-09-22T10:51:49,2420,42.8014,5.9826,13.2966,4.59874,2453.717,38.4849
2023-09-22T10:54:49,2420,42.8014,5.9826,13.2967,4.59872,2453.740,38.4846
2023-09-22T10:57:49,2420,42.8014,5.9826,13.2966,4.59870,2453.762,38.4846
2023-09-22T11:00:49,2420,42.8014,5.9826,13.2967,4.59872,2453.717,38.4846
2023-09-22T11:03:49,2420,42.8014,5.9826,13.2969,4.59875,2453.740,38.4847
2023-09-22T11:06:49,2420,42.8014,5.9826,13.2968,4.59875,2453.717,38.4849
2023-09-22T11:09:49,2420,42.8014,5.9826,13.2969,4.59872,2453.740,38.4845
2023-09-22T11:12:49,2420,42.8014,5.9826,13.2966,4.59872,2453.740,38.4847
2023-09-22T11:15:49,2420,42.8014,5.9826,13.2966,4.59874,2453.740,38.4849
2023-09-22T11:18:49,2420,42.8014,5.9826,13.2970,4.59875,2453.762,38.4845
2023-09-22T11:21:49,2420,42.8014,5.9826,13.2965,4.59874,2453.740,38.4850
2023-09-22T11:24:49,2420,42.8014,5.9826,13.2970,4.59872,2453.725,38.4844
2023-09-22T11:27:49,2420,42.8014,5.9826,13.2967,4.59875,2453.740,38.4849
2023-09-22T11:30:49,2420,42.8014,5.9826,13.2970,4.59876,2453.740,38.4847
2023-09-22T11:33:49,2420,42.8014,5.9826,13.2970,4.59876,2453.762,38.4847
2023-09-22T11:36:49,2420,42.8014,5.9826,13.2968,4.59873,2453.740,38.4846
2023-09-22T11:39:49,2420,42.8014,5.9826,13.2969,4.59876,2453.740,38.4848
2023-09-22T11:42:49,2420,42.8014,5.9826,13.2970,4.59875,2453.740,38.4847
2023-09-22T11:45:49,2420,42.8014,5.9826,13.2968,4.59877,2453.740,38.4851
2023-09-22T11:48:49,2420,42.8014,5.9826,13.2970,4.59882,2453.717,38.4853
2023-09-22T11:51:49,2420,42.8014,5.9826,13.2966,4.59878,2453.717,38.4853
2023-09-22T11:54:49,2420,42.8014,5.9826,13.2969,4.59877,2453.762,38.4849
2023-09-22T11:57:50,2420,42.8014,5.9826,13.2968,4.59879,2453.717,38.4851
2023-09-22T12:00:49,2420,42.8014,5.9826,13.2965,4.59872,2453.725,38.4848
2023-09-22T12:03:49,2420,42.8014,5.9826,13.2969,4.59875,2453.725,38.4847
2023-09-22T12:06:49,2420,42.8014,5.9826,13.2969,4.59880,2453.702,38.4852
2023-09-22T12:09:49,2420,42.8014,5.9826,13.2963,4.59876,2453.717,38.4855
2023-09-22T12:12:49,2420,42.8014,5.9826,13.2968,4.59877,2453.717,38.4850
2023-09-22T12:15:49,2420,42.8014,5.9826,13.2972,4.59881,2453.740,38.4850
2023-09-22T12:18:49,2420,42.8014,5.9826,13.2970,4.59876,2453.740,38.4847
2023-09-22T12:21:49,2420,42.8014,5.9826,13.2969,4.59884,2453.762,38.4856
2023-09-22T12:24:49,2420,42.8014,5.9826,13.2970,4.59875,2453.732,38.4846
2023-09-22T12:27:49,2420,42.8014,5.9826,13.2969,4.59883,2453.740,38.4854
2023-09-22T12:30:50,2420,42.8014,5.9826,13.2966,4.59878,2453.740,38.4853
2023-09-22T12:33:49,2420,42.8014,5.9826,13.2973,4.59879,2453.740,38.4847
2023-09-22T12:36:49,2420,42.8014,5.9826,13.2970,4.59884,2453.754,38.4854
2023-09-22T12:39:49,2420,42.8014,5.9826,13.2966,4.59880,2453.762,38.4855
2023-09-22T12:42:49,2420,42.8014,5.9826,13.2968,4.59884,2453.740,38.4856
2023-09-22T12:45:49,2420,42.8014,5.9826,13.2968,4.59890,2453.702,38.4862
2023-09-22T12:48:49,2420,42.8014,5.9826,13.2971,4.59886,2453.717,38.4855
2023-09-22T12:51:49,2420,42.8014,5.9826,13.2966,4.59884,2453.717,38.4859
2023-09-22T12:54:49,2420,42.8014,5.9826,13.2971,4.59877,2453.695,38.4848
2023-09-22T12:57:49,2420,42.8014,5.9826,13.2967,4.59877,2453.717,38.4852
2023-09-22T13:00:49,2420,42.8014,5.9826,13.2968,4.59881,2453.740,38.4854
2023-09-22T13:03:49,2420,42.8014,5.9826,13.2968,4.59888,2453.717,38.4860
2023-09-22T13:06:49,2420,42.8014,5.9826,13.2969,4.59880,2453.740,38.4852
2023-09-22T13:09:49,2420,42.8014,5.9826,13.2969,4.59879,2453.740,38.4851
2023-09-22T13:12:49,2420,42.8014,5.9826,13.2969,4.59889,2453.740,38.4861
2023-09-22T13:15:49,2420,42.8014,5.9826,13.2967,4.59897,2453.717,38.4870
2023-09-22T13:18:49,2420,42.8014,5.9826,13.2970,4.59889,2453.717,38.4859
2023-09-22T13:21:49,2420,42.8014,5.9826,13.2968,4.59881,2453.717,38.4854
2023-09-22T13:24:49,2420,42.8014,5.9826,13.2969,4.59883,2453.785,38.4855
2023-09-22T13:27:49,2420,42.8014,5.9826,13.2968,4.59882,2453.717,38.4855
2023-09-22T13:30:49,2420,42.8014,5.9826,13.2970,4.59881,2453.762,38.4852
2023-09-22T13:33:49,2420,42.8014,5.9826,13.2968,4.59881,2453.740,38.4854
2023-09-22T13:36:49,2420,42.8014,5.9826,13.2968,4.59887,2453.725,38.4859
2023-09-22T13:39:49,2420,42.8014,5.9826,13.2968,4.59890,2453.740,38.4863
2023-09-22T13:42:49,2420,42.8014,5.9826,13.2975,4.59889,2453.717,38.4854
2023-09-22T13:45:49,2420,42.8014,5.9826,13.2970,4.59888,2453.762,38.4858
2023-09-22T13:48:49,2420,42.8014,5.9826,13.2970,4.59886,2453.702,38.4856
2023-09-22T13:51:49,2420,42.8014,5.9826,13.2972,4.59891,2453.695,38.4859
2023-09-22T13:54:49,2420,42.8014,5.9826,13.2971,4.59900,2453.695,38.4869
2023-09-22T13:57:49,2420,42.8014,5.9826,13.2970,4.59904,2453.702,38.4874
2023-09-22T14:00:50,2420,42.8014,5.9826,13.2970,4.59890,2453.717,38.4861
2023-09-22T14:03:49,2420,42.8014,5.9826,13.2969,4.59888,2453.717,38.4859
2023-09-22T14:06:49,2420,42.8014,5.9826,13.2968,4.59888,2453.717,38.4860
2023-09-22T14:09:49,2420,42.8014,5.9826,13.2970,4.59892,2453.717,38.4863
2023-09-22T14:12:49,2420,42.8014,5.9826,13.2970,4.59891,2453.717,38.4861
2023-09-22T14:15:49,2420,42.8014,5.9826,13.2969,4.59883,2453.717,38.4855
2023-09-22T14:18:49,2420,42.8014,5.9826,13.2966,4.59879,2453.740,38.4853
2023-09-22T14:21:49,2420,42.8014,5.9826,13.2967,4.59890,2453.695,38.4864
2023-09-22T14:24:49,2420,42.8014,5.9826,13.2965,4.59890,2453.717,38.4866
2023-09-22T14:27:49,2420,42.8014,5.9826,13.2968,4.59900,2453.740,38.4872
2023-09-22T14:30:49,2420,42.8014,5.9826,13.2969,4.59898,2453.680,38.4869
2023-09-22T14:33:49,2420,42.8014,5.9826,13.2970,4.59897,2453.717,38.4868
2023-09-22T14:36:49,2420,42.8014,5.9826,13.2970,4.59892,2453.717,38.4862
2023-09-22T14:39:49,2420,42.8014,5.9826,13.2971,4.59894,2453.717,38.4863
2023-09-22T14:42:49,2420,42.8014,5.9826,13.2969,4.59892,2453.740,38.4863
2023-09-22T14:45:49,2420,42.8014,5.9826,13.2963,4.59895,2453.717,38.4872
2023-09-22T14:48:49,2420,42.8014,5.9826,13.2970,4.59894,2453.695,38.4864
2023-09-22T14:51:49,2420,42.8014,5.9826,13.2967,4.59894,2453.754,38.4867
2023-09-22T14:54:49,2420,42.8014,5.9826,13.2971,4.59908,2453.740,38.4876
2023-09-22T14:57:49,2420,42.8014,5.9826,13.2968,4.59891,2453.680,38.4864
2023-09-22T15:00:49,2420,42.8014,5.9826,13.2968,4.59890,2453.717,38.4862
2023-09-22T15:03:49,2420,42.8014,5.9826,13.2970,4.59892,2453.717,38.4862
2023-09-22T15:06:49,2420,42.8014,5.9826,13.2975,4.59893,2453.680,38.4859
2023-09-22T15:09:49,2420,42.8014,5.9826,13.2970,4.59892,2453.702,38.4863
2023-09-22T15:12:49,2420,42.8014,5.9826,13.2971,4.59894,2453.695,38.4863
2023-09-22T15:15:49,2420,42.8014,5.9826,13.2968,4.59897,2453.695,38.4869
2023-09-22T15:18:49,2420,42.8014,5.9826,13.2969,4.59896,2453.695,38.4867
2023-09-22T15:21:49,2420,42.8014,5.9826,13.2968,4.59900,2453.695,38.4872
2023-09-22T15:24:49,2420,42.8014,5.9826,13.2968,4.59894,2453.695,38.4866
2023-09-22T15:27:49,2420,42.8014,5.9826,13.2969,4.59895,2453.695,38.4866
2023-09-22T15:30:50,2420,42.8014,5.9826,13.2985,4.59901,2453.740,38.4856
2023-09-22T15:33:49,2420,42.8014,5.9826,13.2968,4.59893,2453.717,38.4866
2023-09-22T15:36:49,2420,42.8014,5.9826,13.2972,4.59894,2453.680,38.4863
2023-09-22T15:39:49,2420,42.8014,5.9826,13.2968,4.59889,2453.740,38.4861
2023-09-22T15:42:49,2420,42.8014,5.9826,13.2976,4.59893,2453.695,38.4857
2023-09-22T15:45:49,2420,42.8014,5.9826,13.2983,4.59909,2453.702,38.4866
2023-09-22T15:48:49,2420,42.8014,5.9826,13.2966,4.59903,2453.680,38.4877
2023-09-22T15:51:49,2420,42.8014,5.9826,13.2970,4.59895,2453.695,38.4865
2023-09-22T15:54:49,2420,42.8014,5.9826,13.2975,4.59894,2453.725,38.4859
2023-09-22T15:57:49,2420,42.8014,5.9826,13.2965,4.59900,2453.717,38.4875
2023-09-22T16:00:49,2420,42.8014,5.9826,13.2970,4.59892,2453.680,38.4862
2023-09-22T16:03:49,2420,42.8014,5.9826,13.2968,4.59897,2453.695,38.4868